Regional Weather Roundup
Issued by NWS Upton, NY

Current Version | Previous Version | Graphics & Text | Print | Product List | Glossary Off
Versions: 1 2 3 4 5 6 7 8 9 10 11 12 13 14 15 16 17 18 19 20 21 22 23 24 25 26 27 28 29 30 31 32 33 34 35 36 37 38 39 40 41 42 43 44 45 46 47 48 49 50

000
ASUS41 KOKX 262305
RWROKX

REGIONAL WEATHER ROUNDUP
NATIONAL WEATHER SERVICE NEW YORK NY
600 PM EST WED NOV 26 2014

NOTE: "FAIR" INDICATES FEW OR NO CLOUDS BELOW 12,000 FEET WITH NO
SIGNIFICANT WEATHER AND/OR OBSTRUCTIONS TO VISIBILITY.

NYZ071-072-176-178-NJZ106-104-270000-
NEW YORK CITY METRO AREA


CITY           SKY/WX    TMP DP  RH WIND       PRES   REMARKS
CENTRAL PARK   LGT RAIN  36  33  89 N8G18     29.82S FOG     WCI  30
LAGUARDIA APRT LGT RAIN  37  34  87 N14G23    29.79S FOG     WCI  29
KENNEDY INTL   LGT RAIN  39  35  86 N21G28    29.78S FOG     WCI  29
NEWARK/LIBERTY LGT RAIN  35  34  96 N17G24    29.82R FOG     WCI  25
BRNX BOT. GARD   N/A     36  34  93 NW10      29.79F WCI  28
TETERBORO      LGT RAIN  36  32  85 N12G20    29.80F WCI  28
$$

NYZ177-179-078>081-270000-
LONG ISLAND NEW YORK

CITY           SKY/WX    TMP DP  RH WIND       PRES   REMARKS
FARMINGDALE    LGT RAIN  40  35  83 N23G32    29.72R WCI  30
ISLIP          LGT RAIN  39  35  86 N17G32    29.67F WCI  30
SHIRLEY        LGT RAIN  39  36  89 N17G28    29.66F WCI  30
WESTHAMPTON    LGT RAIN  39  36  89 NE21G35   29.66F WCI  29
MONTAUK POINT    N/A     41  38  89 NE18G33   29.67F
$$

NYZ052-065-067-270000-
HUDSON VALLEY

CITY           SKY/WX    TMP DP  RH WIND       PRES   REMARKS
WHITE PLAINS   LGT RAIN  34  32  92 N15       29.77F FOG     WCI  24
NEWBURGH       LGT SNOW  32  32 100 N14G23    29.85F WCI  22
MONTGOMERY     LGT SNOW  33  31  92 N10       29.85S FOG     WCI  25
POUGHKEEPSIE   LGT SNOW  34  31  88 N14       29.85F FOG     WCI  25
ALBANY         LGT SNOW  32  30  92 N10G22    29.98R VSB 1   WCI  24
$$

NJZ001-105-106-008-010-013-015-019>022-104-270000-
NEW JERSEY

CITY           SKY/WX    TMP DP  RH WIND       PRES   REMARKS
NEWARK/LIBERTY LGT RAIN  35  34  96 N17G24    29.82R FOG     WCI  25
TETERBORO      LGT RAIN  36  32  85 N12G20    29.80F WCI  28
CALDWELL       LGT RAIN  33  30  88 NE8       29.82R FOG     WCI  26
MORRISTOWN     CLOUDY    36  34  93 N10G16    29.82R FOG     WCI  28
SOMERVILLE     LGT RAIN  35  32  88 NW10      29.81S FOG     WCI  27
SUSSEX         LGT SNOW  34  32  92 NE6       29.85F FOG     WCI  29
ANDOVER          N/A     33  32  96 VRB6      29.85R WCI  28
TRENTON        LGT SNOW  34  32  92 NW10      29.83R FOG     WCI  26
MILLVILLE      LGT SNOW  37  35  92 NW15G22   29.83R FOG     WCI  28
ATLANTIC CITY  LGT SNOW  37  36  96 N20       29.76F FOG     WCI  27
WRIGHTSTOWN    FLURRIES  35  35  98 N17       29.78R WCI  25
TOMS RIVER     CLOUDY    36  36 100 N7        29.76R WCI  30
BELMAR         CLOUDY    37  30  75 N14G23    29.77R WCI  29
$$

PAZ047>061-062-071-270000-
EASTERN PENNSYLVANIA

CITY           SKY/WX    TMP DP  RH WIND       PRES   REMARKS
PHILADELPHIA   LGTSLEET  36  32  85 NW17      29.87R FOG     WCI  26
ALLENTOWN      LGT SNOW  34  31  88 NW8       29.89R FOG     WCI  27
SCRANTON       LGT SNOW  32  30  92 W8        29.93R FOG     WCI  25
$$

CTZ002-004>006-009-010-012-RIZ004-006-007-MAZ004-011-015-270000-
SOUTHERN NEW ENGLAND
 IN CT

CITY           SKY/WX    TMP DP  RH WIND       PRES   REMARKS
BRADLEY INTL   LGTSLEET  34  31  88 N15G22    29.83F FOG     WCI  24
HARTFORD       RAIN      34  32  92 N13G21    29.81F FOG     WCI  25
DANBURY        LGT RAIN  35  32  88 N14       29.80F FOG     WCI  26
WTRBRY/OXFORD  LGT SNOW  34  27  75 NE15G23   29.80  FOG     WCI  24
BRIDGEPORT     LGT RAIN  38  35  89 N21G29    29.74F WCI  28
MERIDEN        LGT RAIN  34  31  88 N14G25    29.78F FOG     WCI  25
NEW HAVEN      LGT RAIN  37  33  85 N21G26    29.72F WCI  26
CHESTER        MIX PCPN  36  34  93 NE14G23   29.72F WCI  27
GROTON         LGT RAIN  37  37 100 NE25G35   29.67F FOG     WCI  25
WILLIMANTIC    RAIN      36  32  85 NE13G24   29.78F WCI  27

 IN RI

CITY           SKY/WX    TMP DP  RH WIND       PRES   REMARKS
PROVIDENCE     RAIN      36  35  96 N18G24    29.76F FOG     WCI  26
BLOCK ISLAND   CLOUDY    41  37  87 NE25G38   29.67F
WESTERLY       LGT RAIN  37  35  92 N12G21    29.71F WCI  29

 IN MA

CITY           SKY/WX    TMP DP  RH WIND       PRES   REMARKS
BOSTON         RAIN      37  35  92 N22G32    29.85F FOG     WCI  26
WORCESTER      MIX PCPN  30  30 100 NE17G28   29.79F FOG     WCI  18
WESTFIELD      LGT SNOW  33  31  92 N16       29.86F VSB 1   WCI  23
PROVINCETOWN   CLOUDY    45  39  81 NE33G41   29.77F
NANTUCKET      HVY RAIN  47  44  90 NE31G40   29.64F FOG
$$

ANZ330-335-338-340-345-350-353-355-270000-
COASTAL MARINE OBSERVATIONS


STATION/POSITION TIME  SKY/WX   TEMP    WIND        PRES    VSBY  WAVE
                                AIR SEA DIR/SP/G                  HT/PER
                 (UTC)          (F)     (DEG/KT/KT) (MB)    (MI)  (FT/S)
NY HARB ENTRANCE 2300            42 54  350/ 25/ 33 1006.5          7/ 6
4S FIRE IS       2300               53                N/A           8/ 8
20S FIRE ISLAND  2300            44 55   30/ 31/ 37 1002.7         10/ 8
23SW MTP         2300                                 N/A          11/ 8
HUDSON CANYON    2300            53 59   40/ 31/ 37  998.2
EXECUTION ROCKS  2300            39 48   10/ 19/ 25   N/A
WESTERN LI SOUND 2300            39      10/ 19/ 25   N/A           3/ 4
CENTRAL LI SOUND 2200            39 50   20/ 23/ 31   N/A           3/ 5
EASTERN LI SOUND 2200            41 52   40/ 21/ 31   N/A
ROBBINS REEF     2300            36     360/ 18/ 23 1007.7
$$


>>>>>>>>>>>>>>>>>>>>>>>>>>>> KEY <<<<<<<<<<<<<<<<<<<<<<<<<<<
>                                                          <
>     SKY/WX - SKY CONDITION/PRESENT WEATHER               <
>     TMP    - TEMPERATURE IN FAHRENHEIT                   <
>     DP     - DEWPOINT IN FAHRENHEIT                      <
>     RH     - RELATIVE HUMIDITY IN PERCENT                <
>     WIND   - DIRECTION AND SPEED IN MPH                  <
>     PRES   - MEAN SEA LEVEL PRESSURE IN INCHES OF HG     <
>     WCI    - WIND CHILL INDEX                            <
>     VSB    - VISIBILITY IN MILES                         <
>     HX     - HEAT INDEX                                  <
>     TC     - TEMPERATURE IN CELSIUS                      <
>     VRB    - VARIABLE WIND DIRECTION                     <
>                                                          <
>>>>>>>>>>>>>>>>>>>>>>>>>>>> KEY <<<<<<<<<<<<<<<<<<<<<<<<<<<




USA.gov is the U.S. government's official web portal to all federal, state and local government web resources and services.